Weather History for Williston, ND

Change the Weather History Date:

Thursday, January 17, 2013

  Actual Average Record
Temperature  
Mean Temperature 26 °F 11 °F  
Max Temperature 32 °F 22 °F 49 °F (1923)
Min Temperature 20 °F 0 °F -35 °F (1943)
Degree Days  
Heating Degree Days 39 54  
Month to date heating degree days 838 928  
Since 1 July heating degree days 4592 4675  
Cooling Degree Days 0 0  
Month to date cooling degree days 0 0  
Year to date cooling degree days 0 0  
Moisture  
Dew Point 23 °F    
Average Humidity 87    
Maximum Humidity 96    
Minimum Humidity 78    
Precipitation  
Precipitation T in 0.02 in 0.55 in (1953)
Month to date precipitation 0.32 0.36  
Year to date precipitation 0.32 0.36  
Snow  
Snow T in 0.30 in 5.90 in (1996)
Month to date snowfall 5.1 6.3  
Snow Depth 6.00 in    
Sea Level Pressure  
Sea Level Pressure 30.22 in    
Wind  
Wind Speed 6 mph (WNW)    
Max Wind Speed 17 mph    
Max Gust Speed 20 mph    
Visibility 10 miles    
Events Snow    
T = Trace of Precipitation, MM = Missing Value Source: NWS Daily Summary

Daily Weather History Graph

Daily Weather History Graph

Search for Another Location

Airport:

Trip Planner

Search our weather history database for the weather conditions in past years. The results will help you decide how hot, cold, wet, or windy it might be!

Date:

Astronomy

Jan. 17, 2013 Rise Set
Actual Time 8:38 AM CST 5:31 PM CST
Civil Twilight 8:03 AM CST 6:06 PM CST
Nautical Twilight 7:24 AM CST 6:45 PM CST
Astronomical Twilight 6:47 AM CST 7:22 PM CST
Moon 11:12 AM CST (1/17) No Moon Set
Length of Visible Light 10h 03m
Length of Day
8h 53m
Waxing Crescent, 38% of the Moon is Illuminated
Jan 17
Waxing Crescent
Jan 18
First Quarter
Jan 26
Full
Feb 3
Last Quarter
Feb 10
New

Hourly Weather History & Observations

Time (CST) Temp. Windchill Dew Point Humidity Pressure Visibility Wind Dir Wind Speed Gust Speed Precip Events Conditions
12:42 AM 26.6 °F 19.1 °F 24.8 °F 93% 30.18 in 10.0 mi WNW 6.9 mph - N/A   Mostly Cloudy
12:52 AM 26.1 °F 16.8 °F 24.1 °F 92% 30.27 in 10.0 mi West 9.2 mph - N/A   Mostly Cloudy
1:52 AM 28.0 °F 19.3 °F 26.1 °F 92% 30.29 in 10.0 mi WNW 9.2 mph - N/A   Mostly Cloudy
2:24 AM 28.4 °F 19.1 °F 26.6 °F 93% 30.23 in 10.0 mi WNW 10.4 mph - N/A   Overcast
2:52 AM 30.2 °F 19.8 °F 26.6 °F 86% 30.23 in 10.0 mi NNW 13.8 mph - N/A   Overcast
3:52 AM 28.0 °F 19.3 °F 24.1 °F 85% 30.34 in 10.0 mi NW 9.2 mph - N/A   Scattered Clouds
4:12 AM 26.6 °F 15.7 °F 24.8 °F 93% 30.27 in 10.0 mi NNW 12.7 mph - N/A   Overcast
4:52 AM 27.0 °F 18.0 °F 23.0 °F 85% 30.37 in 10.0 mi North 9.2 mph - N/A   Overcast
5:26 AM 23.0 °F 10.6 °F 21.2 °F 93% 30.28 in 10.0 mi NNE 13.8 mph - N/A   Mostly Cloudy
5:43 AM 21.2 °F 10.9 °F 19.4 °F 93% 30.28 in 10.0 mi North 9.2 mph - N/A   Mostly Cloudy
5:52 AM 21.9 °F 11.7 °F 19.9 °F 92% 30.38 in 10.0 mi North 9.2 mph - N/A   Overcast
6:06 AM 21.2 °F 9.5 °F 19.4 °F 93% 30.28 in 10.0 mi North 11.5 mph - N/A   Overcast
6:29 AM 21.2 °F 10.9 °F 19.4 °F 93% 30.28 in 10.0 mi North 9.2 mph - N/A   Overcast
6:52 AM 21.0 °F 12.4 °F 19.0 °F 92% 30.39 in 10.0 mi North 6.9 mph - N/A   Overcast
7:49 AM 21.2 °F - 19.4 °F 93% 30.28 in 10.0 mi Calm Calm - N/A   Overcast
7:52 AM 21.0 °F - 18.0 °F 88% 30.38 in 10.0 mi Calm Calm - N/A   Overcast
8:05 AM 21.2 °F - 17.6 °F 86% 30.29 in 10.0 mi Calm Calm - 0.00 in Snow Light Snow
8:29 AM 21.2 °F - 17.6 °F 86% 30.28 in 4.0 mi Calm Calm - 0.00 in Snow Light Snow
8:52 AM 21.0 °F 16.2 °F 19.0 °F 92% 30.39 in 3.0 mi East 3.5 mph - 0.00 in Snow Light Snow
9:52 AM 21.0 °F - 18.0 °F 88% 30.39 in 9.0 mi Calm Calm - 0.00 in Snow Light Snow
10:52 AM 21.9 °F 14.5 °F 18.0 °F 85% 30.38 in 10.0 mi South 5.8 mph - 0.00 in   Overcast
11:52 AM 23.0 °F 15.8 °F 19.9 °F 88% 30.35 in 10.0 mi SSE 5.8 mph - N/A   Overcast
12:52 PM 24.1 °F 17.0 °F 19.9 °F 84% 30.31 in 10.0 mi East 5.8 mph - 0.00 in   Overcast
1:52 PM 25.0 °F 17.1 °F 21.9 °F 88% 30.24 in 10.0 mi SE 6.9 mph - N/A   Overcast
2:52 PM 26.1 °F 16.8 °F 21.9 °F 84% 30.18 in 10.0 mi SE 9.2 mph - N/A   Overcast
3:52 PM 27.0 °F 20.5 °F 23.0 °F 85% 30.15 in 10.0 mi SE 5.8 mph - N/A   Overcast
4:17 PM 26.6 °F 21.2 °F 24.8 °F 93% 30.05 in 10.0 mi Variable 4.6 mph - N/A   Overcast
4:52 PM 28.0 °F 20.0 °F 24.1 °F 85% 30.12 in 10.0 mi SSE 8.1 mph - N/A   Overcast
5:52 PM 28.9 °F 22.8 °F 25.0 °F 85% 30.10 in 10.0 mi South 5.8 mph - N/A   Overcast
6:52 PM 28.9 °F 23.9 °F 26.1 °F 89% 30.06 in 10.0 mi South 4.6 mph - N/A   Overcast
7:52 PM 30.0 °F 25.2 °F 27.0 °F 88% 30.03 in 10.0 mi South 4.6 mph - N/A   Overcast
8:52 PM 28.9 °F - 27.0 °F 92% 29.99 in 10.0 mi Calm Calm - N/A   Scattered Clouds
9:52 PM 28.0 °F 21.7 °F 26.1 °F 92% 29.93 in 10.0 mi South 5.8 mph - N/A   Clear
10:52 PM 32.0 °F 23.6 °F 27.0 °F 82% 29.90 in 10.0 mi SW 10.4 mph - N/A   Clear
11:52 PM 30.0 °F 25.2 °F 27.0 °F 88% 29.88 in 10.0 mi SW 4.6 mph - N/A   Scattered Clouds